Погода Алматы

Погода Алматы : погода сейчас, прогноз погоды и архив. Всё, что Вы хотите узнать о погоде Алматы!

Поиск расширенной информации на нашем сайте:

Другие новости

Новости СМИ2

Главная страница сайта

Новости сайта

03.07.2017

Напоминаем, что на нашем специализированном сайте Метеоцентр.Азия вы можете получить высокодетализированные автоматические прогнозы погоды по пунктам России, СНГ и мира в авиационном формате (включающие направление и скорость ветра, видимость, явления погоды, количество и форму облачности, нижнюю и верхнюю границу облачности).


Погода Алматы - сегодня

Время (UTC), дата Ветер
(°,м/с) 
Видим.   Явления Облачность Т
(°С)
Тd
(°С)
f(%) Тe
(°С)
Pmin
(гПа)
dP
(гПа)
Po
(мм)
O2
(г/м3)
Тmin Tmax R s Состояние
почвы
03 17.06.18 тихо ()   20000 м    6/0 верхняя 
[Ci fib]
+21.3 +10.4 50 +25  1003.1  -1.3  683  253           
06 17.06.18 тихо ()   10 км    6/3 1000 м верхняя 
[Cu hum|Ci fib]
+25 +9.8 38 +28  1000.9  -1  682  250  +13.2         
09 17.06.18 тихо ()   10 км    5/3 1000 м верхняя 
[Cu hum|Ci fib]
+27 +10.6 36 +31  999.1  -1  681  248           
12 17.06.18 130 (ЮВ) 10 км    3/3 1000 м 
[Cu hum]
+27 +11.8 39 +33  998.6  -0.4  681  247           
15 17.06.18 тихо ()   10 км    1/0 верхняя 
[Ci fib]
+24.5 +13.3 50 +33  1000.1  0.7  682  249    +27.4       
18 17.06.18 тихо ()   н/о    ясно 
+22 +11.5 51 +27  1001.1  0.1  682  252    +27.4       
21 17.06.18 тихо ()   н/о    ясно 
+19.2 +9.6 54 +22  1001.2  -0.8  681  255           
00 18.06.18 тихо () {04}  10 км    8/8 1000 м 
[Cu hum]
+21.2 +8.7 45 +23  1000.7  0.2  681  253           
03 18.06.18 230 (ЮЗ) 20000 м  в посл. час ливневой дождь  6/4 600 м кучево-дожд., средняя 
[Cb cap|Ac trans]
+22.5 +12.3 52 +29  1002.5  2.1  683  252           
06 18.06.18 тихо ()   20000 м  {ливн. осадки}  8/3 600 м кучево-дожд., средняя 
[Cb cap|Ac As]
+29.3 +9.7 30 +32  999.5  -0.9  682  246  +18    0.5     
09 18.06.18 170 (Ю) 20000 м    1/1 1000 м 
[Cu med, cong]
+31.1 +7.2 22 +31  997.9  -1  681  245           
12 18.06.18 220 (ЮЗ) 20000 м    1/1 1000 м 
[Cu med, cong]
+30.6 +8 24 +31  997.7  -0.3  681  245           
15 18.06.18 120 (ЮВ) 10 км    10/0 верхняя 
[Ci fib]
+26.6 +8.3 31 +27  1000  682  249    +31.5       
18 18.06.18 080 (В) н/о    ясно 
+24.4 +6.1 31 +24  1000.7  -0.1  682  251    +31.5       
21 18.06.18 310 (СЗ) н/о    9/8 600 м кучево-дожд., средняя 
[Cb cap|Ac As]
+24.8 +5.3 28 +25  1000.3  -0.3  682  251           
00 19.06.18 140 (ЮВ) 1{03}  10 км    10/8 600 м кучево-дожд., средняя, верхняя 
[Cb cap|Ac As|Ci sp]
+23.6 +7.5 36 +24  1001.7  682  252           
06 19.06.18 030 (СВ) 10 км  {гроза}  4/1 600 м кучево-дожд., средняя, верхняя 
[Cb cap|Ac trans|Ci fib]
+27.8 +13.3 41 +36  1001  -0.5  683  247  +22.5         
09 19.06.18 тихо ()   20000 м    9/8 600 м кучево-дожд., средняя, верхняя 
[Cb cap|Ac As|Ci fib]
+27.8 +13.3 41 +36  1000.3  -0.7  682  247           
12 19.06.18 тихо ()   10 км  {ливн. осадки}  8/8 600 м кучево-дожд. 
[Cb cap]
+26 +7.9 32 +26  1001.1  0.1  683  250           
15 19.06.18 тихо ()   10 км    10/0 средняя, верхняя 
[Ac trans|Ci fib]
+23.6 +10.1 42 +27  1003.6  1.6  684  252    +29.2  0.0     
18 19.06.18 тихо ()   н/о    10/0 средняя, верхняя 
[Ac trans|Ci fib]
+21.4 +9.8 48 +24  1004.1  -0.2  684  254    +29.2  0.0     
21 19.06.18 тихо ()   н/о    5/0 верхняя 
[Ci fib]
+19 +8.5 51 +20  1003.7  -1.1  683  256           
00 20.06.18 150 (ЮВ) 1{05}  20000 м    10/0 верхняя 
[Ci fib]
+19.5 +8.2 48 +22  1004.2  0.6  683  255           
03 20.06.18 тихо ()   20000 м    9/8 600 м кучево-дожд., средняя, верхняя 
[Cb cap|Ac trans|Ci ing]
+23.6 +10.1 42 +27  1005.5  2.4  685  252           
06 20.06.18 290 (З) 10 км  слаб. ливневой дождь  10/10 600 м кучево-дожд. 
[Cb cap]
+22.8 +10.4 45 +26  1008.3  2.3  687  253  +18         
Время (UTC), дата Ветер
(°,м/с) 
Видим.   Явления Облачность Т
(°С)
Тd
(°С)
f(%) Тe
(°С)
Pmin
(гПа)
dP
(гПа)
Po
(мм)
O2
(г/м3)
Тmin Tmax R s Состояние
почвы

Для получения пояснительной информации подведите курсор к названию столбца.

ПОГОДА Алматы - архив

Всё, что Вы хотите узнать о погоде Алматы - удобно и подробно!

Выберите нужную дату (начиная с 1 января 2015* года) и нажмите кнопку "Найти".
Будут отображены архивные сводки погоды по пункту Алматы, начиная с указанной даты.


Отображать данные в формате CSV (для использования в таблицах Excel)


Внимание! Наш архив погоды предназначен исключительно для личного некоммерческого использования в познавательных целях. Если Вам необходимы официальные справки о состоянии погоды (для производственных, юридических, коммерческих и т.п. целей), обращайтесь в органы Росгидромета.

*Примечание: данная дата относится к архиву по метеостанциям СССР (Россия, СНГ, Балтия).
Архив по метеостанциям Зарубежной Европы и Азии (кроме Китая) хранится 10 дней, по другим регионам земного шара (Китай, Африка, Америка, Австралия, Океания) - 1 день.

Алматы - район местоположения метеостанции


Название, широта, долгота, высота метеостанции:
Алматы (город) 43.2°ш. 76.9°д. 851 м над ур. моря [Казахстан]

Дополнительная информация

В oтличие oт бoльшинства пoгoдных сайтoв мы публикуем пoдрoбную метеoинфoрмацию в детальнoм прoфессиoнальнoм фoрмате.

Характеристики температуры и влажнoсти вoздуха измеряются на высoте 2 м в тени вдали oт зданий и деревьев.
Скoрoсть ветра измеряется на высoте 10 м (на урoвне рoста челoвека скoрoсть ветра ниже в 1.5-2 раза). Если метеoстанция нахoдится в гoрoде или в лесу, тo скoрoсть ветра занижена на 2-4 м/с пo сравнению с oткрытым местoм. Скoрoсть ветра над акватoриями крупных рек и oзёр, а также на вершинах хoлмoв на 2-5 м/с выше, чем в oбычных услoвиях.
Атмoсфернoе давление в разных тoчках местнoсти мoжет значительнo oтличаться oт давления на метеoстанции, в зависимoсти oт услoвий рельефа (при пoдъёме на 10 м давление пoнижается примернo на 1 мм рт.ст.).